643  
ASUS44 KBMX 221210  
RWRAL  
 
ALABAMA REGIONAL WEATHER ROUNDUP  
NATIONAL WEATHER SERVICE BIRMINGHAM AL  
700 AM CDT THU JUN 22 2017  
 
NOTE: "FAIR" INDICATES FEW OR NO CLOUDS BELOW 12,000 FEET  
WITH NO SIGNIFICANT WEATHER AND/OR S TO VISIBILITY
.  
 
THE REMARK "TC" DENOTES TEMPERATURE IN DEGREES CELSIUS.  
 
ALZ001>011-014-016>018-020-221300-  
NORTH ALABAMA  
 
CITY SKY/WX TMP DP RH WIND PRES REMARKS
 
MUSCLE SHOALS LGT RAIN 73 70 90 SE10 29.97R  
6HR MIN TEMP: 73; 6HR MAX TEMP: 74; 6HR PCP: 0.16;  
 
HUNTSVILLE LGT RAIN 72 72 100 E8 30.00R FOG  
6HR MIN TEMP: 72; 6HR MAX TEMP: 74; 6HR PCP: 0.79;  
 
DECATUR RAIN 71 71 100 SE8 29.99S  
6HR MIN TEMP: 71; 6HR MAX TEMP: 73; 6HR PCP: 0.90;  
 
HALEYVILLE NOT AVBL  
GADSDEN HVY RAIN 72 72 100 SE6 30.04R FOG  
6HR MIN TEMP: 70; 6HR MAX TEMP: 72; 6HR PCP: 0.56;  
 

 
 
ALZ012-013-022-023-030>036-040>044-221300-  
WEST CENTRAL ALABAMA  
 
CITY SKY/WX TMP DP RH WIND PRES REMARKS
 
TUSCALOOSA CLOUDY 75 75 100 SE7 29.93R  
6HR MIN TEMP: 74; 6HR MAX TEMP: 75; 6HR PCP: 0.77;  
 

 
 
ALZ015-024>027-033>036-040>044-221300-  
CENTRAL ALABAMA  
 
CITY SKY/WX TMP DP RH WIND PRES REMARKS
 
BIRMINGHAM RAIN 73 72 96 SE6 30.01R FOG  
6HR MIN TEMP: 73; 6HR MAX TEMP: 74; 6HR PCP: 1.11;  
 
MONTGOMERY LGT RAIN 78 73 84 SE12 29.97S  
6HR MIN TEMP: 77; 6HR MAX TEMP: 78; 6HR PCP: 1.52;  
 
SHELBY CO ARPT HVY RAIN 75 75 100 SE7G17 29.98S VSB 3/4  
6HR MIN TEMP: 73; 6HR MAX TEMP: 75; 6HR PCP: 1.58;  
 
MAXWELL AFB LGT RAIN 75 75 100 SE13 29.97R FOG  
6HR PCP: 1.47;  
 
GREENVILLE CLOUDY 76 72 87 SE6 29.96R  
6HR MIN TEMP: 75; 6HR MAX TEMP: 77; 6HR PCP: 0.90;  
 

 
 
ALZ019-021-028-029-037-038-045>048-221300-  
EAST CENTRAL ALABAMA  
 
CITY SKY/WX TMP DP RH WIND PRES REMARKS
 
ANNISTON LGT RAIN 75 72 90 E5 30.04R FOG  
6HR MIN TEMP: 72; 6HR MAX TEMP: 75; 6HR PCP: 0.30;  
 
ALEXANDER CITY HVY RAIN 74 73 98 SE9 30.02R  
6HR MIN TEMP: 72; 6HR MAX TEMP: 74; 6HR PCP: 0.42;  
 
AUBURN LGT RAIN 74 73 97 SE9 30.06R  
6HR MIN TEMP: 71; 6HR MAX TEMP: 74; 6HR PCP: 0.16;  
 

 
 
ALZ051>064-221300-  
SOUTHWEST ALABAMA  
 
CITY SKY/WX TMP DP RH WIND PRES REMARKS
 
MOBILE CLOUDY 81 75 82 S24G35 29.88R  
6HR MIN TEMP: 78; 6HR MAX TEMP: 81; 6HR PCP: 0.04;  
 
BROOKLEY FIELD PTSUNNY 82 79 90 SE17G31 29.89R HX 92  
6HR MIN TEMP: 80; 6HR MAX TEMP: 82; 6HR PCP: 0.01;  
 
EVERGREEN CLOUDY 77 74 90 SE12 29.94R  
6HR MIN TEMP: 76; 6HR MAX TEMP: 77; 6HR PCP: 0.44;  
 

 
 
ALZ049-050-065>069-221300-  
SOUTHEAST ALABAMA  
 
CITY SKY/WX TMP DP RH WIND PRES REMARKS
 
DOTHAN CLOUDY 76 76 100 SE10 30.05R  
6HR MIN TEMP: 76; 6HR MAX TEMP: 78; 6HR PCP: 0.12;  
 
OZARK LGT RAIN 76 74 96 SE7 30.01R FOG  
6HR MIN TEMP: 76; 6HR MAX TEMP: 78; 6HR PCP: 0.25;  
 
TROY LGT RAIN 75 74 96 S12G22 30.01R  
6HR MIN TEMP: 75; 6HR MAX TEMP: 77; 6HR PCP: 0.93;  
 
EUFAULA FAIR 77 74 90 SE7 30.03R  
6HR MIN TEMP: 77; 6HR MAX TEMP: 78; 6HR PCP: 0.01;  
 

 
 
 
CLICK HERE TO GO TO PREVIOUS BULLETINS.

The Nexlab AL Page Main Text Page